Precipitable_Water
0.56 0.61 0.63 0.63 0.62 0.62 0.62 0.62 0.64 0.65 0.64 0.64 0.64 0.63 0.63 0.61 0.58 0.56 0.54 0.53 0.51 0.50 0.49 0.48 0.47 0.44 0.42 0.40 0.38 0.37 0.33 0.30
0.59 0.62 0.64 0.63 0.63 0.62 0.62 0.62 0.65 0.67 0.64 0.60 0.60 0.58 0.60 0.60 0.58 0.56 0.54 0.53 0.52 0.50 0.48 0.47 0.46 0.43 0.42 0.41 0.38 0.35 0.32 0.32
0.59 0.61 0.61 0.62 0.62 0.63 0.64 0.64 0.65 0.65 0.64 0.62 0.61 0.60 0.59 0.58 0.58 0.56 0.54 0.52 0.51 0.49 0.47 0.46 0.45 0.43 0.41 0.40 0.39 0.35 0.35 0.36
0.56 0.58 0.59 0.61 0.61 0.63 0.64 0.65 0.66 0.66 0.66 0.64 0.61 0.60 0.59 0.58 0.57 0.54 0.53 0.52 0.51 0.49 0.47 0.44 0.41 0.41 0.38 0.39 0.38 0.36 0.35 0.38
0.51 0.53 0.55 0.57 0.59 0.62 0.64 0.66 0.66 0.65 0.66 0.63 0.61 0.57 0.53 0.53 0.52 0.52 0.51 0.49 0.48 0.47 0.43 0.39 0.36 0.36 0.36 0.36 0.37 0.37 0.38 0.35
0.47 0.52 0.56 0.59 0.62 0.64 0.67 0.67 0.64 0.63 0.61 0.58 0.54 0.50 0.51 0.51 0.50 0.48 0.47 0.46 0.44 0.41 0.38 0.37 0.36 0.35 0.35 0.34 0.33 0.34 0.35 0.33
0.49 0.53 0.56 0.59 0.63 0.64 0.66 0.63 0.60 0.59 0.57 0.55 0.51 0.48 0.46 0.45 0.46 0.45 0.43 0.39 0.37 0.36 0.36 0.35 0.36 0.36 0.35 0.34 0.33 0.31 0.31 0.31
0.46 0.50 0.53 0.56 0.58 0.59 0.58 0.58 0.55 0.55 0.53 0.52 0.50 0.48 0.47 0.45 0.44 0.41 0.37 0.35 0.32 0.32 0.32 0.30 0.30 0.31 0.32 0.30 0.29 0.29 0.28 0.28
0.44 0.48 0.50 0.53 0.53 0.54 0.55 0.54 0.51 0.51 0.50 0.49 0.49 0.49 0.48 0.45 0.42 0.38 0.35 0.31 0.29 0.30 0.29 0.29 0.27 0.26 0.27 0.25 0.22 0.23 0.26 0.27
0.41 0.45 0.49 0.49 0.49 0.50 0.51 0.50 0.50 0.51 0.50 0.50 0.48 0.48 0.46 0.42 0.38 0.35 0.31 0.30 0.28 0.27 0.25 0.22 0.22 0.21 0.21 0.18 0.18 0.19 0.22 0.23
0.44 0.46 0.46 0.49 0.49 0.49 0.51 0.52 0.50 0.50 0.50 0.49 0.48 0.47 0.44 0.40 0.38 0.36 0.31 0.25 0.23 0.21 0.19 0.18 0.15 0.14 0.14 0.13 0.12 0.13 0.14 0.15
0.42 0.44 0.46 0.48 0.50 0.50 0.51 0.51 0.51 0.50 0.50 0.49 0.48 0.44 0.45 0.42 0.36 0.31 0.23 0.20 0.17 0.15 0.15 0.15 0.14 0.12 0.12 0.10 0.10 0.10 0.10 0.11
0.43 0.44 0.45 0.46 0.48 0.50 0.50 0.52 0.51 0.52 0.51 0.50 0.47 0.47 0.43 0.37 0.31 0.25 0.19 0.13 0.14 0.15 0.15 0.14 0.14 0.14 0.12 0.11 0.11 0.12 0.12 0.12
0.40 0.42 0.42 0.44 0.47 0.50 0.52 0.52 0.51 0.53 0.53 0.50 0.49 0.46 0.40 0.31 0.25 0.20 0.14 0.12 0.12 0.14 0.14 0.14 0.13 0.14 0.13 0.12 0.13 0.13 0.14 0.14
0.37 0.40 0.43 0.45 0.48 0.50 0.52 0.52 0.53 0.56 0.52 0.47 0.48 0.41 0.33 0.26 0.20 0.16 0.14 0.12 0.12 0.13 0.15 0.15 0.15 0.14 0.14 0.14 0.14 0.15 0.15 0.15
0.38 0.40 0.42 0.45 0.46 0.50 0.52 0.51 0.58 0.53 0.46 0.48 0.43 0.36 0.29 0.23 0.17 0.16 0.14 0.13 0.13 0.14 0.14 0.14 0.15 0.16 0.16 0.15 0.15 0.16 0.17 0.17
0.40 0.41 0.43 0.44 0.47 0.50 0.51 0.57 0.52 0.49 0.50 0.44 0.37 0.29 0.27 0.21 0.17 0.16 0.15 0.14 0.14 0.14 0.14 0.15 0.15 0.16 0.17 0.16 0.15 0.15 0.15 0.16
0.44 0.45 0.47 0.49 0.51 0.53 0.54 0.53 0.50 0.53 0.47 0.38 0.30 0.26 0.21 0.18 0.17 0.15 0.15 0.15 0.15 0.15 0.15 0.15 0.15 0.14 0.14 0.14 0.13 0.13 0.13 0.14
0.45 0.47 0.48 0.51 0.52 0.53 0.56 0.53 0.54 0.49 0.41 0.32 0.25 0.19 0.16 0.16 0.16 0.15 0.15 0.16 0.16 0.16 0.15 0.13 0.13 0.14 0.13 0.12 0.12 0.12 0.12 0.13
Wind_Speed
19 19 18 18 19 20 20 21 21 22 22 22 23 23 24 24 25 26 27 28 29 29 29 29 29 29 29 29 29 28 28 29
22 22 21 20 20 20 21 22 23 23 24 24 24 24 25 26 26 27 27 28 29 29 30 30 30 30 30 29 29 29 29 29
25 25 24 23 22 21 21 22 23 24 24 24 25 24 25 25 26 27 28 29 29 29 29 29 29 29 29 29 29 30 30 29
28 27 26 24 23 22 22 22 23 24 24 24 24 25 27 28 29 29 29 29 29 29 29 29 29 29 29 30 30 30 30 30
26 26 25 25 24 22 22 23 23 24 24 25 26 27 28 28 29 28 28 29 28 28 29 29 29 29 30 30 31 30 30 30
24 23 23 23 21 21 22 23 22 22 23 24 25 25 26 28 29 28 27 27 27 27 28 29 29 28 28 29 29 29 29 29
21 22 22 22 21 21 22 22 22 23 24 25 26 26 27 27 27 27 26 26 26 26 27 27 27 27 27 27 27 27 27 27
19 20 21 21 21 20 21 22 24 25 25 25 25 25 24 24 24 23 24 24 25 26 26 25 25 26 26 26 26 26 25 25
19 20 20 20 20 20 22 23 24 24 24 23 23 22 22 23 22 22 23 23 24 24 24 24 24 25 24 24 25 25 24 24
19 19 19 20 20 21 22 22 23 23 22 22 21 21 21 20 19 19 19 21 21 21 21 21 21 21 22 22 22 21 21 22
18 18 19 21 21 21 22 22 22 22 22 21 20 19 18 17 16 17 18 17 18 18 18 18 19 19 19 19 18 17 16 16
20 20 21 22 22 22 22 22 21 21 20 18 17 16 15 15 15 14 15 15 15 16 15 15 15 15 16 15 14 14 13 14
21 22 22 23 22 22 21 21 21 19 18 16 15 14 14 13 12 12 13 13 13 12 12 11 13 14 14 14 13 13 13 13
23 24 24 23 22 21 21 20 19 18 16 15 15 14 13 11 11 11 10 11 9 8 9 10 12 14 15 15 14 14 15 14
25 25 24 23 22 21 20 19 17 17 16 16 15 13 11 10 10 9 8 6 4 6 7 9 11 13 14 16 16 17 17 16
24 25 24 23 22 21 20 19 18 16 15 14 13 12 11 10 9 8 5 2 2 4 6 8 10 11 12 14 15 16 17 18
23 22 22 22 22 21 20 19 18 16 15 13 13 12 12 11 9 7 5 3 1 3 5 7 8 10 11 12 13 14 15 16
21 21 21 22 22 21 20 19 17 16 15 14 13 13 12 11 9 8 7 5 2 1 4 6 8 9 10 12 13 14 15 16
19 19 20 21 21 19 18 17 16 14 14 13 13 13 12 11 10 10 8 6 3 2 3 5 7 9 11 12 13 14 15 16
Wind_Direction
261 264 268 275 281 285 287 287 287 285 283 284 286 289 291 292 293 295 295 296 296 295 295 294 293 291 291 290 289 287 286 284
262 263 266 273 278 281 284 285 284 283 283 284 286 287 289 291 293 295 296 296 296 296 295 295 294 293 292 291 289 289 288 288
262 263 266 270 273 277 280 283 285 285 285 285 286 287 289 290 293 295 296 297 297 297 297 297 297 294 294 294 292 290 288 289
261 261 264 266 269 273 277 283 287 288 285 285 287 288 290 292 293 294 297 298 298 298 298 297 296 294 292 291 292 290 287 287
260 261 261 263 267 271 276 283 287 289 287 287 288 290 290 291 294 295 297 300 299 299 299 298 297 295 294 292 291 289 288 287
259 256 257 260 262 267 276 283 288 290 291 291 290 291 292 293 296 296 297 299 300 300 300 300 299 298 296 296 294 293 290 288
256 255 255 258 261 267 276 280 286 290 292 292 292 293 294 295 296 296 296 297 300 301 303 303 301 301 300 299 298 296 294 291
253 250 253 257 259 266 275 280 287 290 291 293 294 295 296 296 297 298 301 301 302 303 305 304 304 303 302 301 299 298 296 294
253 250 255 255 260 268 276 282 288 291 293 294 295 294 297 299 299 299 301 303 306 308 307 307 306 306 306 305 302 298 296 296
257 257 255 257 264 272 278 283 290 292 293 292 293 295 298 301 302 303 306 307 308 310 313 314 314 314 313 312 309 306 302 300
260 259 259 264 268 274 281 286 290 291 291 291 292 294 296 301 304 305 310 314 315 317 320 321 323 323 321 321 321 319 317 315
263 265 266 267 271 276 281 284 288 290 291 291 291 292 293 299 304 308 314 318 321 324 329 333 338 341 341 341 341 341 339 337
265 266 267 269 271 274 278 280 286 286 285 284 288 287 290 295 299 305 316 322 328 335 344 352 359 1 3 3 3 4 5 3
266 267 267 267 269 270 273 280 280 285 281 277 282 283 282 288 294 301 315 326 337 357 9 15 16 20 22 22 20 18 15 12
267 265 263 264 264 266 271 275 275 281 273 273 274 273 272 280 290 297 309 327 360 11 22 26 26 27 29 31 31 30 27 23
263 261 260 259 260 262 263 267 272 273 271 268 260 263 266 274 282 289 287 282 354 28 27 25 24 24 26 26 26 25 25 24
264 259 255 255 255 256 258 262 267 265 264 255 254 257 263 267 268 262 233 223 148 23 21 21 21 18 21 20 18 16 15 14
260 259 255 252 251 251 253 257 259 260 250 249 254 256 258 254 249 233 211 201 210 359 10 12 12 9 9 7 6 4 3 2
262 260 256 249 247 247 249 249 249 246 246 248 250 253 251 243 229 208 201 210 225 277 339 351 355 356 356 355 355 354 354 353